Weather History for Louisburg, NC

Change the Weather History Date:

Wednesday, December 12, 2012

  Actual Average (KRDU) Record (KRDU)
Temperature  
Mean Temperature 42 °F 44 °F  
Max Temperature 48 °F 54 °F 79 °F (2007)
Min Temperature 37 °F 34 °F 10 °F (1957)
Degree Days  
Heating Degree Days 22 21  
Month to date heating degree days 233  
Since 1 July heating degree days 814  
Cooling Degree Days 0 0  
Month to date cooling degree days 0  
Year to date cooling degree days 1728  
Moisture  
Dew Point 34 °F    
Average Humidity 68    
Maximum Humidity 100    
Minimum Humidity 57    
Precipitation  
Precipitation 0.15 in 0.10 in 1.07 in (1983)
Month to date precipitation 1.20  
Year to date precipitation 41.47  
Snow  
Snow 0.00 in 0.00 in 7.00 in (1917)
Month to date snowfall 0.1  
Since 1 July snowfall 0.2  
Snow Depth -    
Sea Level Pressure  
Sea Level Pressure 30.28 in    
Wind  
Wind Speed 8 mph (NNE)    
Max Wind Speed 13 mph    
Max Gust Speed 18 mph    
Visibility 9 miles    
Events Rain    
T = Trace of Precipitation, MM = Missing Value Source: NWS Daily Summary

Daily Weather History Graph

Daily Weather History Graph

Search for Another Location

Airport:

Trip Planner

Search our weather history database for the weather conditions in past years. The results will help you decide how hot, cold, wet, or windy it might be!

Date:

Astronomy

Dec. 12, 2012 Rise Set
Actual Time 7:14 AM EST 4:59 PM EST
Civil Twilight 6:46 AM EST 5:28 PM EST
Nautical Twilight 6:14 AM EST 6:00 PM EST
Astronomical Twilight 5:43 AM EST 6:31 PM EST
Moon 6:17 AM EST (12/12) 4:34 PM EST (12/12)
Length of Visible Light 10h 41m
Length of Day
9h 44m
Waning Crescent, 1% of the Moon is Illuminated
Dec 12
Waning Crescent
Dec 13
New
Dec 20
First Quarter
Dec 28
Full
Jan 4
Last Quarter

Hourly Weather History & Observations

Time (EST) Temp. Windchill Dew Point Humidity Pressure Visibility Wind Dir Wind Speed Gust Speed Precip Events Conditions
12:15 AM 48.2 °F - 37.4 °F 66% 30.16 in 10.0 mi NNE 5.8 mph - N/A   Overcast
12:35 AM 48.2 °F - 37.4 °F 66% 30.16 in 10.0 mi NE 6.9 mph - N/A   Overcast
12:55 AM 48.2 °F - 37.4 °F 66% 30.18 in 10.0 mi NNE 6.9 mph - N/A   Overcast
1:15 AM 48.2 °F - 37.4 °F 66% 30.17 in 10.0 mi NE 6.9 mph - N/A   Overcast
1:35 AM 48.2 °F - 37.4 °F 66% 30.18 in 10.0 mi NNE 5.8 mph - N/A   Overcast
1:55 AM 48.2 °F - 37.4 °F 66% 30.18 in 10.0 mi NE 5.8 mph - N/A   Overcast
2:15 AM 46.4 °F 41.1 °F 35.6 °F 66% 30.19 in 10.0 mi NE 11.5 mph - N/A   Overcast
2:35 AM 46.4 °F 41.5 °F 35.6 °F 66% 30.19 in 10.0 mi NE 10.4 mph - N/A   Overcast
2:55 AM 46.4 °F 42.4 °F 35.6 °F 66% 30.20 in 10.0 mi North 8.1 mph - N/A   Overcast
3:15 AM 46.4 °F 43.5 °F 35.6 °F 66% 30.18 in 10.0 mi NNE 5.8 mph - N/A   Overcast
3:35 AM 46.4 °F 43.5 °F 35.6 °F 66% 30.19 in 10.0 mi NNE 5.8 mph - N/A   Overcast
3:55 AM 46.4 °F 41.9 °F 33.8 °F 62% 30.19 in 10.0 mi NNE 9.2 mph - N/A   Overcast
4:15 AM 46.4 °F 41.5 °F 35.6 °F 66% 30.19 in 10.0 mi NE 10.4 mph - N/A   Overcast
4:35 AM 46.4 °F 41.9 °F 33.8 °F 62% 30.22 in 10.0 mi NE 9.2 mph - N/A   Overcast
4:55 AM 46.4 °F 42.4 °F 33.8 °F 62% 30.22 in 10.0 mi NNE 8.1 mph 16.1 mph N/A   Overcast
5:15 AM 44.6 °F 40.2 °F 33.8 °F 66% 30.23 in 10.0 mi NNE 8.1 mph - N/A   Overcast
5:35 AM 44.6 °F 40.2 °F 33.8 °F 66% 30.23 in 10.0 mi NNE 8.1 mph - N/A   Overcast
5:55 AM 44.6 °F 40.7 °F 33.8 °F 66% 30.24 in 10.0 mi NNE 6.9 mph - N/A   Overcast
6:15 AM 44.6 °F 40.7 °F 33.8 °F 66% 30.25 in 10.0 mi NNE 6.9 mph - N/A   Light Drizzle
6:35 AM 44.6 °F 40.7 °F 33.8 °F 66% 30.25 in 10.0 mi North 6.9 mph - N/A   Overcast
6:55 AM 44.6 °F 40.2 °F 33.8 °F 66% 30.27 in 10.0 mi North 8.1 mph - N/A   Overcast
7:15 AM 44.6 °F 41.4 °F 32.0 °F 61% 30.28 in 10.0 mi North 5.8 mph 16.1 mph N/A   Overcast
7:35 AM 42.8 °F 37.5 °F 33.8 °F 70% 30.27 in 10.0 mi NNE 9.2 mph - N/A Rain Light Rain
7:55 AM 42.8 °F 38.0 °F 33.8 °F 70% 30.26 in 10.0 mi NNE 8.1 mph - N/A   Overcast
8:15 AM 42.8 °F 37.0 °F 33.8 °F 70% 30.28 in 10.0 mi NNE 10.4 mph - N/A   Overcast
8:35 AM 42.8 °F 38.0 °F 33.8 °F 70% 30.29 in 10.0 mi NNE 8.1 mph - N/A   Overcast
8:55 AM 42.8 °F 38.0 °F 32.0 °F 66% 30.30 in 10.0 mi NNE 8.1 mph - N/A   Overcast
9:15 AM 42.8 °F 38.6 °F 32.0 °F 66% 30.31 in 10.0 mi NNE 6.9 mph - N/A   Overcast
9:35 AM 42.8 °F 39.3 °F 32.0 °F 66% 30.32 in 10.0 mi North 5.8 mph - N/A   Overcast
9:55 AM 42.8 °F 38.0 °F 32.0 °F 66% 30.32 in 10.0 mi NNE 8.1 mph - N/A   Overcast
10:15 AM 42.8 °F 39.3 °F 32.0 °F 66% 30.33 in 10.0 mi North 5.8 mph - N/A   Overcast
10:35 AM 42.8 °F 36.2 °F 32.0 °F 66% 30.32 in 10.0 mi North 12.7 mph 16.1 mph N/A   Overcast
10:55 AM 44.6 °F 38.4 °F 32.0 °F 61% 30.32 in 10.0 mi North 12.7 mph 17.3 mph N/A   Overcast
11:15 AM 44.6 °F 39.2 °F 32.0 °F 61% 30.33 in 10.0 mi North 10.4 mph - N/A   Overcast
11:35 AM 44.6 °F 39.7 °F 32.0 °F 61% 30.32 in 10.0 mi NNE 9.2 mph - N/A   Overcast
11:55 AM 44.6 °F 39.7 °F 32.0 °F 61% 30.31 in 10.0 mi NNE 9.2 mph - N/A   Overcast
12:15 PM 42.8 °F 38.0 °F 30.2 °F 61% 30.31 in 10.0 mi NNE 8.1 mph 16.1 mph N/A   Overcast
12:35 PM 44.6 °F 39.7 °F 32.0 °F 61% 30.30 in 10.0 mi NNE 9.2 mph - N/A   Overcast
12:55 PM 42.8 °F 36.6 °F 30.2 °F 61% 30.29 in 10.0 mi North 11.5 mph - N/A   Overcast
1:15 PM 44.6 °F 39.2 °F 30.2 °F 57% 30.30 in 10.0 mi North 10.4 mph 16.1 mph N/A   Overcast
1:35 PM 44.6 °F 39.2 °F 30.2 °F 57% 30.29 in 10.0 mi NNE 10.4 mph 16.1 mph N/A   Overcast
1:55 PM 44.6 °F 39.7 °F 30.2 °F 57% 30.29 in 10.0 mi NNE 9.2 mph - N/A   Overcast
2:15 PM 44.6 °F 39.2 °F 30.2 °F 57% 30.29 in 7.0 mi NNE 10.4 mph 18.4 mph N/A   Overcast
2:35 PM 44.6 °F 39.7 °F 30.2 °F 57% 30.28 in 10.0 mi NNE 9.2 mph 18.4 mph N/A   Overcast
2:55 PM 44.6 °F 39.2 °F 30.2 °F 57% 30.29 in 10.0 mi NNE 10.4 mph - N/A   Overcast
3:15 PM 44.6 °F 39.7 °F 30.2 °F 57% 30.29 in 10.0 mi NNE 9.2 mph 16.1 mph N/A   Overcast
3:35 PM 44.6 °F 39.7 °F 30.2 °F 57% 30.29 in 10.0 mi NNE 9.2 mph 17.3 mph N/A   Overcast
3:55 PM 44.6 °F 39.2 °F 30.2 °F 57% 30.30 in 10.0 mi NNE 10.4 mph - N/A   Overcast
4:15 PM 44.6 °F 40.2 °F 30.2 °F 57% 30.31 in 10.0 mi NNE 8.1 mph 16.1 mph N/A   Overcast
4:35 PM 44.6 °F 40.2 °F 30.2 °F 57% 30.30 in 10.0 mi NNE 8.1 mph - N/A   Overcast
4:55 PM 44.6 °F 40.7 °F 32.0 °F 61% 30.30 in 10.0 mi NE 6.9 mph - N/A Rain Light Rain
5:15 PM 42.8 °F 37.5 °F 32.0 °F 66% 30.31 in 10.0 mi North 9.2 mph - N/A Rain Light Rain
5:35 PM 41.0 °F 39.0 °F 33.8 °F 76% 30.32 in 7.0 mi North 3.5 mph - N/A Rain Light Rain
5:55 PM 41.0 °F 38.0 °F 33.8 °F 76% 30.33 in 10.0 mi NNE 4.6 mph - 0.01 in   Light Drizzle
6:15 PM 41.0 °F 35.8 °F 33.8 °F 76% 30.30 in 7.0 mi NNE 8.1 mph - N/A Rain Light Rain
6:35 PM 41.0 °F 35.8 °F 35.6 °F 81% 30.29 in 7.0 mi NNE 8.1 mph - 0.01 in Rain Light Rain
7:15 PM 41.0 °F 37.1 °F 35.6 °F 81% 30.31 in 10.0 mi North 5.8 mph - N/A   Light Drizzle
7:55 PM 41.0 °F 37.1 °F 35.6 °F 81% 30.32 in 7.0 mi North 5.8 mph - N/A Rain Rain
8:15 PM 41.0 °F 39.0 °F 35.6 °F 81% 30.34 in 7.0 mi North 3.5 mph - N/A Rain Light Rain
8:35 PM 41.0 °F 38.0 °F 35.6 °F 81% 30.34 in 7.0 mi North 4.6 mph - 0.02 in Rain Rain
8:55 PM 39.2 °F 34.2 °F 35.6 °F 87% 30.34 in 7.0 mi North 6.9 mph - 0.02 in Rain Light Rain
9:15 PM 37.4 °F 32.1 °F 35.6 °F 93% 30.33 in 7.0 mi North 6.9 mph - 0.02 in Rain Light Rain
9:35 PM 37.4 °F 32.1 °F 35.6 °F 93% 30.32 in 7.0 mi North 6.9 mph - 0.03 in Rain Light Rain
9:55 PM 37.4 °F 32.1 °F 35.6 °F 93% 30.32 in 10.0 mi NNE 6.9 mph - 0.04 in Rain Rain
10:15 PM 37.4 °F 30.8 °F 33.8 °F 87% 30.32 in 7.0 mi NNE 9.2 mph - N/A Rain Light Rain
10:35 PM 37.4 °F 31.4 °F 35.6 °F 93% 30.32 in 7.0 mi North 8.1 mph - 0.01 in Rain Light Rain
10:55 PM 37.4 °F 32.8 °F 37.4 °F 100% 30.31 in 7.0 mi NNE 5.8 mph - 0.03 in Rain Light Rain
11:15 PM - - - N/A% 30.30 in 7.0 mi NNE 6.9 mph - 0.02 in Rain Light Rain
11:35 PM - - - N/A% 30.30 in 7.0 mi North 6.9 mph - 0.03 in Rain Light Rain
11:55 PM - - - N/A% 30.32 in 5.0 mi NNW 5.8 mph - 0.04 in   Unknown